[[{"header":{"parameterUnit":"m.s-1","parameterCategory":1,"la1":30.2991,"la2":30.254,"lo1":-89.0895,"lo2":-89.0444,"dy":0.0017,"dx":0.0017,"nx":28,"ny":28,"refTime":"2024-06-21T03:00:00:Z","depth":0,"parameterNumber":2,"parameterNumberName":"U-component_of_WINDS"},"data":[0,0,0,0,0,0,0,0,0,0,0,0,0,0,0,0,0,0,0,0,0,0,0,0,0,0,0,0,0,0,0,0,0,0,0,0,0,0,0,0,0,0,0,0,0,0,0,0,0,0,0,0,0,0,0,0,0,0,-0.5893,-0.5892,0,-0.5831,-0.583,-0.5829,-0.5776,-0.5776,-0.5775,-0.5775,-0.571,-0.5709,-0.5708,0,0,0,0,0,0,0,0,0,0,0,0,0,-0.5966,-0.5965,-0.5893,-0.5892,-0.5892,-0.5831,-0.583,-0.5829,-0.5776,-0.5776,-0.5775,-0.5774,-0.5711,-0.5709,-0.5708,0,0,0,0,0,0,0,0,0,0,0,0,0,-0.5922,-0.5965,-0.5893,-0.5858,-0.5854,-0.5831,-0.583,-0.5829,-0.5777,-0.5776,-0.5775,-0.5774,-0.5711,-0.5709,-0.5708,-0.5714,0,0,-0.5702,-0.5701,0,0,0,0,0,0,0,0,-0.5925,-0.5919,-0.5864,-0.586,-0.5856,-0.581,-0.5832,-0.579,-0.5777,-0.5806,-0.5775,-0.5774,-0.5744,-0.574,-0.573,-0.5711,-0.5708,-0.5702,-0.5701,-0.57,-0.57,0,0,0,0,0,0,0,-0.5928,-0.5922,-0.5868,-0.5863,-0.5858,-0.5845,-0.5838,-0.5824,-0.5781,-0.5803,-0.5799,-0.5793,-0.5742,-0.5732,-0.5728,-0.5707,-0.5702,-0.5701,-0.5699,-0.5699,-0.5691,-0.5691,0,0,0,0,0,0,-0.5936,-0.5925,-0.587,-0.5867,-0.5889,-0.5844,-0.5836,-0.5826,-0.5781,-0.5773,-0.5794,-0.5791,-0.5735,-0.573,-0.5725,-0.573,-0.57,-0.5699,-0.5698,-0.569,-0.5691,-0.5692,0,0,0,0,0,0,-0.5938,-0.5932,-0.5873,-0.5894,-0.5886,-0.5844,-0.5833,-0.5825,-0.5815,-0.5773,-0.5765,-0.5791,-0.5734,-0.5728,-0.5717,-0.5727,-0.5698,-0.5696,-0.5689,-0.569,-0.5691,-0.5739,0,0,0,0,0,0,-0.594,-0.5933,-0.5935,-0.5895,-0.5885,-0.5866,-0.5833,-0.5825,-0.5812,-0.5808,-0.5769,-0.5762,-0.5733,-0.572,-0.5716,-0.5724,-0.5695,-0.5688,-0.5689,-0.5691,-0.5737,-0.5742,-0.5747,0,0,0,0,0,-0.5943,-0.5951,-0.5936,-0.5929,-0.5887,-0.5867,-0.5861,-0.5828,-0.5813,-0.5815,-0.5788,-0.5763,-0.5727,-0.572,-0.5714,-0.5722,-0.5687,-0.5689,-0.5691,-0.5734,-0.5741,-0.5746,0,0,0,0,0,0,-0.5993,-0.5945,-0.5927,-0.5923,-0.5899,-0.5858,-0.5859,-0.5836,-0.5816,-0.5813,-0.5773,-0.5765,-0.5758,-0.5739,-0.5732,-0.5726,-0.5703,-0.5704,-0.5739,-0.5744,-0.5749,-0.5754,-0.5693,0,0,0,0,0,-0.6004,-0.5992,-0.595,-0.595,-0.5939,-0.5901,-0.5891,-0.5868,-0.5842,-0.5832,-0.5804,-0.578,-0.5763,-0.5753,-0.5735,-0.5734,-0.5724,-0.5736,-0.5741,-0.5746,-0.5747,-0.5744,-0.5749,-0.5698,-0.5698,-0.5698,0,0,-0.6026,-0.5998,-0.5993,-0.5959,-0.5939,-0.5927,-0.5893,-0.5882,-0.5873,-0.583,-0.5818,-0.5797,-0.5767,-0.5762,-0.5758,-0.5745,-0.5759,-0.5748,-0.5752,-0.575,-0.5747,-0.5752,-0.5756,-0.5699,-0.5699,-0.5699,0,0,-0.6059,-0.6037,-0.6034,-0.6014,-0.5983,-0.5957,-0.5957,-0.5919,-0.5903,-0.5891,-0.5859,-0.5847,-0.5819,-0.5798,-0.5785,-0.581,-0.5786,-0.5806,-0.5832,-0.583,-0.5834,-0.5837,-0.5846,-0.585,-0.5807,-0.5807,-0.5807,0,-0.609,-0.6071,-0.6036,-0.6026,-0.6013,-0.5973,-0.597,-0.5952,-0.5917,-0.5908,-0.5895,-0.5859,-0.5836,-0.5824,-0.5831,-0.5821,-0.5819,-0.581,-0.5836,-0.5839,-0.5842,-0.585,-0.5853,-0.581,-0.5809,-0.5809,-0.5809,0,-0.611,-0.6097,-0.6099,-0.6066,-0.6052,-0.6046,-0.601,-0.6,-0.5978,-0.5954,-0.5942,-0.5913,-0.5889,-0.5884,-0.5862,-0.587,-0.5863,-0.5844,-0.582,-0.585,-0.5857,-0.5859,-0.5813,-0.5812,-0.5812,-0.5811,0,0,-0.6173,-0.6121,-0.6122,-0.6106,-0.6069,-0.6058,-0.605,-0.6026,-0.6019,-0.5996,-0.5988,-0.5965,-0.5947,-0.5931,-0.5906,-0.5905,-0.5927,-0.5885,-0.5884,-0.5894,-0.5933,-0.5948,-0.5952,-0.5911,-0.5911,-0.5912,-0.5935,0,-0.62,-0.6184,-0.6152,-0.6145,-0.6133,-0.6096,-0.6088,-0.6065,-0.6042,-0.6028,-0.6003,-0.5987,-0.5965,-0.5955,-0.5952,-0.5925,-0.5934,-0.5923,-0.5903,-0.5902,-0.5911,-0.5955,-0.5971,-0.5995,-0.5938,-0.5938,-0.5939,0,-0.623,-0.6209,-0.6202,-0.6165,-0.6158,-0.6153,-0.6128,-0.6115,-0.6087,-0.6071,-0.6054,-0.6027,-0.6016,-0.5995,-0.598,-0.5973,-0.5962,-0.5948,-0.5948,-0.5945,-0.5922,-0.5953,-0.6002,-0.6005,-0.5942,-0.5942,-0.5942,0,-0.6277,-0.6247,-0.6238,-0.6226,-0.6183,-0.618,-0.6162,-0.6133,-0.6121,-0.6099,-0.6091,-0.6068,-0.6056,-0.6039,-0.6007,-0.5995,-0.5995,-0.5971,-0.5981,-0.5982,-0.5982,-0.5983,-0.603,-0.5976,-0.5976,-0.5976,-0.5976,0,-0.6311,-0.6307,-0.6259,-0.6254,-0.6249,-0.6212,-0.6208,-0.6186,-0.6161,-0.6151,-0.6117,-0.6108,-0.6066,-0.6052,-0.6027,-0.6018,-0.6013,-0.5999,-0.5992,-0.6002,-0.6004,-0.5995,-0.5992,-0.5977,-0.5977,-0.5977,-0.5977,0,-0.6362,-0.633,-0.6318,-0.6278,-0.6268,-0.6266,-0.6232,-0.6225,-0.62,-0.6188,-0.6183,-0.6144,-0.6126,-0.6092,-0.6064,-0.6047,-0.6044,-0.6032,-0.6053,-0.6049,-0.6061,-0.606,-0.6103,-0.6107,-0.6052,-0.6052,-0.6053,0,-0.6386,-0.6383,-0.6342,-0.6333,-0.6316,-0.6302,-0.6289,-0.6252,-0.624,-0.6208,-0.6205,-0.6185,-0.6166,-0.6139,-0.6108,-0.6087,-0.6074,-0.6091,-0.6071,-0.6081,-0.6074,-0.6075,-0.6074,-0.6096,-0.6096,-0.6097,-0.6098,0,-0.6432,-0.6415,-0.6398,-0.6376,-0.6361,-0.6341,-0.632,-0.6314,-0.6273,-0.6261,-0.6242,-0.6228,-0.6199,-0.6179,-0.6153,-0.6134,-0.6109,-0.6104,-0.6105,-0.6115,-0.6127,-0.6121,-0.6066,-0.6103,-0.6103,-0.6102,-0.6102,-0.6102,-0.647,-0.6465,-0.6436,-0.6418,-0.6398,-0.6378,-0.637,-0.6344,-0.6328,-0.6302,-0.6281,-0.6264,-0.6236,-0.6198,-0.6181,-0.6167,-0.6155,-0.6156,-0.6157,-0.6158,-0.6162,-0.613,-0.6162,-0.6161,-0.6161,-0.6161,-0.6161,0,-0.6514,-0.6493,-0.6477,-0.6448,-0.6433,-0.6411,-0.6386,-0.6375,-0.6361,-0.6336,-0.6319,-0.6297,-0.6277,-0.6245,-0.6222,-0.6217,-0.6205,-0.6212,-0.6212,-0.6208,-0.6174,-0.6175,-0.6222,-0.6222,-0.6222,-0.6222,-0.6222,-0.6222,-0.6535,-0.6525,-0.6506,-0.6486,-0.6465,-0.6448,-0.6435,-0.6417,-0.6398,-0.6375,-0.6358,-0.6337,-0.6309,-0.6284,-0.6265,-0.6256,-0.6249,-0.626,-0.6248,-0.6216,-0.621,-0.6205,-0.6206,-0.6259,-0.6259,-0.6283,-0.6284,-0.6284]},{"header":{"parameterUnit":"m.s-1","parameterCategory":1,"la1":30.2991,"la2":30.254,"lo1":-89.0895,"lo2":-89.0444,"dy":0.0017,"dx":0.0017,"nx":28,"ny":28,"refTime":"2024-06-21T03:00:00:Z","depth":0,"parameterNumber":3,"parameterNumberName":"V-component_of_WINDS"},"data":[0,0,0,0,0,0,0,0,0,0,0,0,0,0,0,0,0,0,0,0,0,0,0,0,0,0,0,0,0,0,0,0,0,0,0,0,0,0,0,0,0,0,0,0,0,0,0,0,0,0,0,0,0,0,0,0,0,0,2.2253,2.2253,0,2.2259,2.2259,2.2259,2.2234,2.2234,2.2233,2.2232,2.2237,2.2238,2.2239,0,0,0,0,0,0,0,0,0,0,0,0,0,2.2221,2.2221,2.2253,2.2253,2.2253,2.2259,2.2259,2.2259,2.2234,2.2234,2.2233,2.2232,2.2237,2.2238,2.2239,0,0,0,0,0,0,0,0,0,0,0,0,0,2.2231,2.2222,2.2253,2.2242,2.2241,2.2259,2.2259,2.2259,2.2235,2.2234,2.2233,2.2232,2.2236,2.2238,2.2239,2.2267,0,0,2.2242,2.2243,0,0,0,0,0,0,0,0,2.2231,2.2232,2.2243,2.2243,2.2242,2.2245,2.2249,2.2262,2.2235,2.2237,2.2232,2.2231,2.224,2.2241,2.2244,2.2268,2.2268,2.2242,2.2243,2.2244,2.2244,0,0,0,0,0,0,0,2.223,2.2232,2.2255,2.2244,2.2242,2.2236,2.2236,2.2251,2.2245,2.2237,2.2235,2.2236,2.224,2.2243,2.2244,2.2268,2.2242,2.2243,2.2244,2.2245,2.2314,2.2315,0,0,0,0,0,0,2.2231,2.2232,2.2255,2.2255,2.2233,2.2238,2.2238,2.2245,2.2244,2.2243,2.2237,2.2235,2.2242,2.2243,2.2245,2.2277,2.2244,2.2245,2.2245,2.2313,2.2314,2.2316,0,0,0,0,0,0,2.223,2.2233,2.2255,2.2243,2.2245,2.2239,2.2247,2.2245,2.2249,2.2244,2.2243,2.2242,2.2241,2.2243,2.2262,2.2277,2.2245,2.2246,2.2312,2.2314,2.2315,2.2344,0,0,0,0,0,0,2.2229,2.2233,2.2244,2.2244,2.2246,2.2272,2.2248,2.2246,2.2251,2.2249,2.2249,2.2248,2.224,2.226,2.2263,2.2278,2.2247,2.231,2.2313,2.2315,2.2342,2.2347,2.2351,0,0,0,0,0,2.2228,2.2252,2.2245,2.2248,2.226,2.2273,2.2275,2.2266,2.2253,2.2264,2.2261,2.2248,2.2275,2.2262,2.2265,2.2281,2.2309,2.2312,2.2314,2.234,2.2346,2.2351,0,0,0,0,0,0,2.2254,2.2252,2.2244,2.2268,2.2271,2.2269,2.2282,2.2273,2.2279,2.2276,2.2265,2.2265,2.2286,2.2286,2.2271,2.2309,2.229,2.2293,2.2308,2.2314,2.2318,2.2318,2.2248,0,0,0,0,0,2.2263,2.2274,2.2271,2.2293,2.2295,2.2289,2.2294,2.2287,2.229,2.2291,2.2289,2.2292,2.2301,2.2308,2.2316,2.2342,2.2341,2.2354,2.2359,2.2363,2.2365,2.2378,2.2384,2.2324,2.2324,2.2324,0,0,2.228,2.228,2.2288,2.2298,2.23,2.2311,2.229,2.2303,2.2312,2.2293,2.2311,2.231,2.2312,2.2335,2.2344,2.2335,2.2382,2.2366,2.2369,2.2369,2.2382,2.2387,2.2392,2.2326,2.2326,2.2325,0,0,2.2318,2.232,2.2338,2.234,2.2343,2.2338,2.2343,2.2343,2.2341,2.2359,2.2345,2.2355,2.2371,2.2374,2.2377,2.2416,2.2404,2.2419,2.2442,2.2455,2.246,2.2464,2.2478,2.2483,2.2422,2.2422,2.2422,0,2.2339,2.2357,2.2348,2.2362,2.2367,2.2351,2.2369,2.2371,2.2377,2.238,2.2369,2.239,2.239,2.2413,2.2422,2.2426,2.243,2.2419,2.246,2.2464,2.2468,2.2481,2.2486,2.2424,2.2424,2.2423,2.2423,0,2.2383,2.2395,2.2409,2.2415,2.2422,2.2438,2.2431,2.2438,2.2431,2.2428,2.2446,2.2446,2.2454,2.2459,2.2452,2.248,2.2474,2.2462,2.2443,2.2476,2.2487,2.2492,2.2426,2.2426,2.2425,2.2425,0,0,2.2436,2.2437,2.2443,2.2445,2.2447,2.2457,2.2472,2.248,2.2486,2.2491,2.2503,2.2517,2.2506,2.251,2.2503,2.2515,2.2545,2.2501,2.2501,2.2509,2.2576,2.2585,2.2591,2.2538,2.2539,2.254,2.2576,0,2.2473,2.2499,2.2492,2.2518,2.2529,2.2515,2.2528,2.2531,2.2528,2.2537,2.2534,2.2544,2.2529,2.2531,2.2542,2.2539,2.2558,2.2537,2.2549,2.2549,2.2548,2.2597,2.2606,2.264,2.258,2.2581,2.2582,0,2.2519,2.2526,2.2553,2.2554,2.2558,2.257,2.2577,2.2586,2.2589,2.2586,2.259,2.2581,2.2596,2.2577,2.2597,2.2582,2.2587,2.2586,2.2588,2.2588,2.2567,2.2597,2.2651,2.2656,2.2589,2.2588,2.2588,0,2.2555,2.257,2.2589,2.2591,2.2593,2.2601,2.2602,2.2604,2.2609,2.2615,2.2618,2.2626,2.263,2.2636,2.2629,2.2616,2.265,2.263,2.2647,2.2647,2.2654,2.2654,2.2708,2.2659,2.2659,2.2658,2.2658,0,2.2596,2.2613,2.2605,2.2616,2.2635,2.2626,2.2645,2.2644,2.2646,2.2656,2.2644,2.2654,2.2645,2.2654,2.2648,2.2665,2.2667,2.2665,2.2664,2.2666,2.2666,2.2668,2.2665,2.266,2.266,2.2659,2.2659,0,2.2638,2.2634,2.2653,2.2652,2.2653,2.2666,2.2666,2.2676,2.2673,2.2687,2.2689,2.2684,2.2694,2.2688,2.2698,2.2695,2.2717,2.2712,2.2716,2.2714,2.2731,2.273,2.2788,2.2795,2.2742,2.2743,2.2743,0,2.2665,2.2678,2.2679,2.2685,2.2687,2.2697,2.2703,2.2695,2.2701,2.2705,2.2715,2.2724,2.2731,2.2748,2.2745,2.2753,2.2748,2.2768,2.2749,2.2751,2.2747,2.2746,2.2747,2.2771,2.2772,2.2772,2.2773,0,2.2712,2.2709,2.2717,2.2725,2.2732,2.2738,2.2742,2.2748,2.274,2.2748,2.2758,2.2763,2.2774,2.2783,2.279,2.279,2.278,2.2779,2.2783,2.2785,2.2787,2.2786,2.2726,2.2777,2.2777,2.2777,2.2776,2.2776,2.2746,2.2757,2.276,2.2769,2.2772,2.2777,2.2786,2.2785,2.2793,2.2801,2.2796,2.2809,2.2811,2.2819,2.2821,2.283,2.2822,2.2828,2.2829,2.2831,2.2833,2.2786,2.2831,2.2831,2.2831,2.2831,2.2831,0,2.2792,2.2793,2.2802,2.2809,2.2817,2.2808,2.2812,2.2819,2.283,2.2833,2.284,2.2852,2.2861,2.2859,2.2867,2.2875,2.2871,2.2877,2.2876,2.2876,2.284,2.2835,2.2881,2.2881,2.2881,2.2881,2.2881,2.2881,2.2817,2.2834,2.2832,2.285,2.2851,2.2863,2.2867,2.2871,2.2873,2.2887,2.2895,2.2894,2.2895,2.2903,2.291,2.2909,2.2912,2.2921,2.2918,2.2884,2.2879,2.2874,2.287,2.2922,2.2922,2.2954,2.2954,2.2954]}]]